Regional Weather Roundup
Issued by NWS Cleveland, OH

Home | Current Version | Previous Version | Graphics & Text | Print | Product List | Glossary On
Versions: 1 2 3 4 5 6 7 8 9 10 11 12 13 14 15 16 17 18 19 20 21 22 23 24 25 26 27 28 29 30 31 32 33 34 35 36 37 38 39 40 41 42 43 44 45 46 47 48 49 50
668
ASUS41 KCLE 251810
RWRCLE
OHIO REGIONAL WEATHER ROUNDUP
NATIONAL WEATHER SERVICE CLEVELAND, OH
200 PM EDT SUN JUN 25 2017

NOTE: "FAIR" INDICATES FEW OR NO CLOUDS BELOW 12,000 FEET WITH NO
SIGNIFICANT WEATHER AND/OR OBSTRUCTIONS TO VISIBILITY.

OHZ001>008-015>018-024>027-034-035-043-044-251900-
   NORTHWEST OHIO

CITY           SKY/WX    TMP DP  RH WIND       PRES   REMARKS
DEFIANCE       MOSUNNY   67  45  45 W7        30.09S
FINDLAY        PTSUNNY   69  43  38 W18G30    30.08S
TOLEDO EXPRESS PTSUNNY   70  45  40 W20G26    30.06S
TOLEDO EXEC    MOSUNNY   72  47  40 W20       30.07S
LIMA           MOSUNNY   70  46  42 W15G30    30.11S
$$

OHZ009>014-019>023-028>033-038-089-251900-
   NORTHEAST OHIO

CITY           SKY/WX    TMP DP  RH WIND       PRES   REMARKS
CLE-HOPKINS    MOSUNNY   75  44  33 W20G33    30.05R
CLE-LAKEFRONT  MOSUNNY   71  52  50 W22G31    30.02R
CUY CO. ARPT   MOSUNNY   70  52  52 NW17G28   30.04R
LORAIN-ELYRIA  MOSUNNY   71  43  36 W20G26    30.06R
ASHTABULA      CLOUDY    70  52  52 W24G31    30.02R
AKRON-CANTON   MOSUNNY   75  42  30 W25G39    30.04F
WOOSTER        MOSUNNY   72  48  42 W16G38    30.06S
MANSFIELD      SUNNY     71  46  40 W20G29    30.07F
YOUNGSTOWN     PTSUNNY   72  45  37 SW22G32   30.03F
$$

OHZ042-051>053-060>062-070>072-077>081-251900-
  SOUTHWEST OHIO

CITY           SKY/WX    TMP DP  RH WIND       PRES   REMARKS
CINC-COVINGTON MOSUNNY   76  50  40 W13       30.14F
CINC-LUNKEN    MOSUNNY   76  52  43 W14G23    30.13F
HAMILTON       SUNNY     78  52  40 W18G28    30.13F
DAYTON         MOSUNNY   74  48  39 W18       30.13F
WRIGHT-PAT AFB SUNNY     75  46  35 W20G29    30.11F
DAYTON GENERAL MOSUNNY   74  47  38 W14G25    30.12F
WILMINGTON     MOSUNNY   76  51  41 W22G29    30.12F
$$

OHZ036-037-039>041-045>050-054>059-063>069-073>076-082>088-251900-
  CENTRAL AND SOUTHEAST OHIO

CITY           SKY/WX    TMP DP  RH WIND       PRES   REMARKS
COLUMBUS       PTSUNNY   75  48  38 W21G30    30.08F
OSU AIRPORT    PTSUNNY   73  50  44 W23G29    30.09F
BOLTON FIELD   PTSUNNY   73  50  43 W16G28    30.10F
RICKENBACK AFB MOSUNNY   76  50  39 W21G28    30.10S
NEWARK         PTSUNNY   75  44  33 W15G24    30.08F
MARION         SUNNY     72  46  39 W18G25    30.09F
LANCASTER        N/A     73  49  42 W13G25    30.11F
ZANESVILLE     MOSUNNY   75  48  38 W14G24    30.09F
NEW PHILLY     NOT AVBL
$$




USA.gov is the U.S. government's official web portal to all federal, state and local government web resources and services.